Weather in Gumarino

Russia / Republic of Karelia     62°57′49″N   33°07′01″E
temp.,
°C
wind,
m/s
gust,
m/s
humid.,
%
clouds,
%
prec.,
mm/h
press.,
hPa
HPBL,
m
4 march, thu
thu400:00−4nnw4892100 0.3 997791
03:00−8nnw389594 0.3 999252
06:00−8nnw269696 0.1 999212
09:00−8nw399383 0.1 1000408
12:00−6nw478890 0.0 1000506
15:00−5nw478489 0.0 1000762
18:00−7nw3893100 0.1 1001576
21:00−8nw399595 0.3 1001403
5 march, fri
fri500:00−10nne279095 0.4 1003278
03:00−14nnw239179 0.4 100524
06:00−14wnw128638 0.0 100620
09:00−12nw399566 0.1 1008360
12:00−9n368288 0.0 1009716
15:00−8nnw348284 0.1 1011807
18:00−10nnw229498 0.1 101238
21:00−13nw229564 0.1 101420
6 march, sat
sat600:00−14w22950 0.0 101420
03:00−14w239612 0.0 101465
06:00−15wsw36965 0.0 1013117
09:00−13sw489415 0.0 1011253
12:00−8ssw5108456 0.0 1007482
15:00−6ssw7137878 0.0 1001917
18:00−6s71591100 0.7 9931111
21:00−5s71494100 2.6 987925
7 march, sun
sun700:00−6wnw61286100 2.1 985647
03:00−11wnw41274100 2.1 985699
06:00−16w368733 0.0 986111
09:00−16wnw119024 0.0 98720
12:00−10nne13761 0.0 989347
15:00−9nnw247510 0.0 992684
18:00−10n499488 0.1 995630
21:00−13n7138994 0.6 998806
8 march, mon
mon800:00−15nne61491100 0.1 1001691
03:00−17nne61491100 0.3 1004615
06:00−19n61594100 0.1 1007559
09:00−20n51394100 0.1 1010517
12:00−17n51191100 0.0 1013492
15:00−15n51087100 0.1 1015570
18:00−17n4109172 0.0 1017466
21:00−20n389864 0.0 1019199